DateTimeUTC,F1_A11,F1_S11,BsB_S11,BsG_S11,BsR_S11,BbsB_S11,BbsG_S11,BbsR_S11,BaB_A11,BaG_A11,BaR_A11,Tu_S11,T_S11,Uu_S11,U_S11,P_S11,T1_A11
2021-04-12T08:00:00Z,00000200,21000000,,,,,,,0000.13,0000.33,0000.75,16.6,23.8,,00.0,0667.7,31.0
2021-04-12T08:01:00Z,00000200,21000000,,,,,,,0000.55,0000.51,-000.45,16.6,23.8,,00.0,0667.6,31.0
2021-04-12T08:02:00Z,00000200,21000000,,,,,,,-000.41,-000.38,0000.02,16.6,23.8,,00.0,0667.6,31.0
2021-04-12T08:03:00Z,00000200,61000000,,,,,,,0000.91,0000.87,0000.50,16.6,23.8,,00.0,0667.6,31.0
2021-04-12T08:04:00Z,00000200,41000000,0001.66,0001.16,0000.73,0000.38,0000.02,0000.20,0000.61,0000.26,0000.49,16.8,23.7,00.3,00.2,0668.5,31.0
2021-04-12T08:05:00Z,00000200,01000000,0001.24,0001.36,0000.38,0000.57,0000.30,0000.01,0000.91,0000.88,0000.56,16.8,23.6,00.4,00.3,0668.6,31.0
2021-04-12T08:06:00Z,00000200,01000000,0001.79,0001.17,0000.46,0000.02,0000.21,0000.26,0001.23,0001.26,0000.79,16.8,23.6,00.5,00.3,0668.6,31.0
2021-04-12T08:07:00Z,00000200,01000000,0001.69,0001.19,0000.39,0000.19,0000.28,0000.03,0000.42,0000.14,0000.28,16.8,23.6,00.5,00.3,0668.6,31.0
2021-04-12T08:08:00Z,00000200,01000000,0001.39,0000.94,0000.86,0000.20,0000.08,0000.11,0000.38,0000.43,0000.33,16.8,23.6,00.4,00.3,0668.6,31.0
2021-04-12T08:09:00Z,00000200,01000000,0001.64,0000.89,0000.67,0000.53,0000.04,0000.18,0001.18,0000.62,0000.53,16.8,23.6,00.4,00.3,0668.6,31.0
2021-04-12T08:10:00Z,00000200,01000000,0002.68,0001.33,0000.54,0000.16,0000.09,0000.24,0000.44,0000.48,0000.53,16.8,23.6,00.5,00.4,0668.6,31.0
2021-04-12T08:11:00Z,00000200,01000000,0000.95,0000.93,0000.66,0000.46,0000.07,0000.21,0000.80,0001.10,0000.39,16.8,23.6,00.6,00.4,0668.6,31.0
2021-04-12T08:12:00Z,00000200,01000000,0002.30,0001.02,0000.79,0000.61,0000.29,0000.26,0000.57,0000.24,0000.44,16.8,23.6,00.6,00.4,0668.7,31.0
2021-04-12T08:13:00Z,00000200,01010000,0002.16,0001.40,0000.37,0000.48,0000.21,0000.24,0001.06,0001.00,0000.48,16.8,23.5,00.5,00.4,0668.7,31.0
2021-04-12T08:14:00Z,00000200,01000000,0001.79,0001.44,0000.80,0000.32,0000.03,0000.24,0000.35,0000.75,0000.57,16.8,23.6,00.7,00.4,0668.6,31.0
2021-04-12T08:15:00Z,00000200,01000000,0001.88,0001.11,0000.62,0000.69,0000.20,0000.31,0001.23,0000.92,0000.92,16.9,23.6,00.7,00.4,0668.5,31.0
2021-04-12T08:16:00Z,00000200,01000000,0002.23,0001.21,0000.51,0000.38,0000.11,-000.08,0001.03,0001.14,0000.89,16.9,23.6,00.8,00.5,0668.5,31.0
2021-04-12T08:17:00Z,00000200,01000000,0001.81,0001.02,0000.59,0000.49,0000.25,0000.18,0000.99,0001.02,0000.42,16.9,23.6,00.9,00.6,0668.4,31.0
2021-04-12T08:18:00Z,00000200,01000000,0001.57,0001.15,0000.56,0000.44,0000.19,0000.23,0000.86,0000.66,0000.38,17.0,23.6,00.9,00.6,0668.4,31.0
2021-04-12T08:19:00Z,00000200,01000000,0001.58,0001.11,0000.36,0000.34,0000.41,0000.26,0000.89,0000.49,0000.58,16.9,23.6,01.0,00.7,0668.4,31.0
2021-04-12T08:20:00Z,00000200,01000000,0002.07,0001.31,0000.31,-000.01,0000.30,0000.09,0001.10,0000.69,0000.11,16.9,23.6,00.9,00.6,0668.4,31.0
2021-04-12T08:21:00Z,00000200,01000000,0002.05,0001.26,0000.82,0000.40,0000.47,0000.09,0000.63,0000.85,0001.07,16.9,23.6,01.1,00.7,0668.4,31.0
2021-04-12T08:22:00Z,00000200,01000000,0002.66,0001.05,0000.47,0000.05,0000.14,0000.24,0000.80,0000.92,0000.52,16.9,23.6,01.0,00.7,0668.4,31.0
2021-04-12T08:23:00Z,00000200,01000000,0001.88,0001.18,0000.75,0000.25,0000.58,0000.33,0000.73,0000.34,0000.31,16.9,23.6,01.1,00.7,0668.4,31.0
2021-04-12T08:24:00Z,00000200,01000000,0002.56,0001.57,0001.02,0000.21,0000.11,0000.17,0000.58,0000.96,0000.71,16.9,23.6,01.1,00.7,0668.5,31.0
2021-04-12T08:25:00Z,00000200,01000000,0001.46,0001.42,0001.09,0000.37,0000.27,0000.33,0000.96,0000.56,0000.48,16.9,23.6,01.1,00.7,0668.4,31.0
2021-04-12T08:26:00Z,00000200,01000000,0002.67,0001.41,0000.59,0000.36,0000.28,-000.14,0000.55,0000.67,0000.06,16.9,23.6,01.1,00.7,0668.4,31.0
2021-04-12T08:27:00Z,00000200,01000000,0001.83,0001.22,0000.74,0000.04,0000.28,-000.12,0000.69,0000.62,0000.86,16.9,23.6,01.2,00.8,0668.4,31.0
2021-04-12T08:28:00Z,00000200,01000000,0002.23,0001.38,0000.89,0000.46,0000.24,0000.19,0000.92,0000.68,0000.56,16.9,23.5,01.1,00.7,0668.3,31.0
2021-04-12T08:29:00Z,00000200,01000000,0001.92,0001.48,0000.42,0000.16,0000.15,0000.16,0000.43,0000.46,0000.07,16.9,23.6,01.2,00.8,0668.4,31.0
2021-04-12T08:30:00Z,00000200,01000000,0002.22,0001.38,0000.58,0000.37,0000.36,-000.13,0000.83,0000.65,0000.52,16.9,23.6,01.0,00.7,0668.4,31.0
2021-04-12T08:31:00Z,00000200,01000000,0002.12,0001.26,0000.90,0000.17,0000.18,0000.16,0000.67,0000.71,0000.50,17.0,23.6,01.1,00.7,0668.4,31.0
2021-04-12T08:32:00Z,00000200,01000000,0002.38,0001.47,0000.79,0000.02,0000.12,0000.19,0000.34,0000.36,0000.47,17.0,23.6,01.1,00.7,0668.4,31.0
2021-04-12T08:33:00Z,00000200,01000000,0001.50,0001.07,0000.63,0000.35,0000.33,-000.13,0001.13,0000.61,0000.32,17.0,23.6,01.1,00.7,0668.4,31.0
2021-04-12T08:34:00Z,00000200,01000000,0002.51,0001.39,0000.50,0000.80,0000.26,-000.05,0000.17,0000.46,0000.71,17.0,23.6,01.0,00.7,0668.5,31.0
2021-04-12T08:35:00Z,00000200,01000000,0001.87,0001.37,0000.87,0000.30,0000.05,0000.18,0000.85,0000.62,0000.03,17.0,23.6,01.0,00.7,0668.4,31.0
2021-04-12T08:36:00Z,00000200,01000000,0001.86,0001.22,0000.48,0000.65,0000.18,0000.08,0000.86,0000.76,0000.83,17.0,23.6,01.1,00.8,0668.4,31.0
2021-04-12T08:37:00Z,00000200,01000000,0001.84,0001.31,0000.60,0000.10,-000.04,0000.05,0000.74,0000.60,0000.42,17.0,23.6,01.0,00.7,0668.4,31.0
2021-04-12T08:38:00Z,00000200,01000000,0001.90,0001.48,0001.02,0000.72,0000.32,0000.30,0000.64,0000.86,0000.62,17.0,23.6,01.1,00.7,0668.5,31.0
2021-04-12T08:39:00Z,00000200,01000000,0002.64,0001.34,0000.66,0000.38,0000.16,0000.08,0001.06,0000.91,0000.53,17.0,23.6,01.1,00.7,0668.4,31.0
2021-04-12T08:40:00Z,00000200,01000000,0001.76,0001.26,0000.84,0000.37,0000.17,0000.16,0001.02,0000.76,0000.82,17.0,23.6,01.2,00.8,0668.4,31.0
2021-04-12T08:41:00Z,00000200,01000000,0001.73,0001.40,0000.62,0000.27,0000.08,0000.08,0000.78,0000.66,0000.33,17.0,23.6,01.2,00.8,0668.5,31.0
2021-04-12T08:42:00Z,00000200,01000000,0002.09,0001.23,0000.51,0000.72,0000.11,0000.17,0000.73,0000.74,0000.77,17.0,23.6,01.3,00.9,0668.4,31.0
2021-04-12T08:43:00Z,00000200,01000000,0001.70,0001.12,0000.63,0000.32,0000.08,0000.29,0000.80,0000.83,0000.34,17.0,23.6,01.3,00.8,0668.4,31.0
2021-04-12T08:44:00Z,00000200,01000000,0001.91,0001.34,0000.79,0000.26,0000.09,0000.26,0000.95,0000.67,0000.39,16.9,23.6,01.3,00.9,0668.5,31.0
2021-04-12T08:45:00Z,00000200,01000000,0001.87,0001.47,0000.88,0000.26,0000.35,-000.03,0000.81,0000.76,0000.57,17.0,23.6,01.3,00.9,0668.4,31.0
2021-04-12T08:46:00Z,00000200,01000000,0002.78,0001.17,0000.77,0000.85,0000.05,0000.02,0000.96,0000.67,0000.71,16.9,23.6,01.4,00.9,0668.4,31.0
2021-04-12T08:47:00Z,00000200,01000000,0002.27,0001.42,0000.72,0000.12,0000.14,-000.10,0000.93,0001.19,0000.51,17.0,23.6,01.3,00.9,0668.2,31.0
2021-04-12T08:48:00Z,00000200,01000000,0002.20,0001.46,0000.64,0000.53,0000.16,0000.01,0000.39,0000.54,0000.39,16.9,23.6,01.4,00.9,0668.3,31.0
2021-04-12T08:49:00Z,00000200,01000000,0002.40,0001.35,0000.58,0000.36,0000.35,0000.18,0000.56,0000.45,0000.61,17.0,23.6,01.5,01.0,0668.3,31.0
2021-04-12T08:50:00Z,00000200,01000000,0001.70,0001.49,0000.58,0000.60,0000.35,0000.16,0000.87,0000.64,0000.60,17.0,23.6,01.4,00.9,0668.2,31.0
2021-04-12T08:51:00Z,00000200,01000000,0002.20,0001.52,0000.75,0000.52,0000.21,0000.33,0000.81,0000.67,0000.52,17.0,23.6,01.4,00.9,0668.3,31.0
2021-04-12T08:52:00Z,00000200,01000000,0001.94,0001.37,0000.79,0000.36,-000.09,0000.22,0000.99,0000.76,0000.41,17.0,23.6,01.5,01.0,0668.2,31.0
2021-04-12T08:53:00Z,00000200,01000000,0002.23,0001.51,0000.67,0000.68,0000.30,0000.02,0000.72,0000.76,0000.43,17.0,23.6,01.5,01.0,0668.3,31.0
2021-04-12T08:54:00Z,00000200,01000000,0001.85,0001.26,0000.79,0000.26,0000.16,0000.13,0000.93,0000.61,0000.55,17.0,23.6,01.5,01.0,0668.3,31.0
2021-04-12T08:55:00Z,00000200,01000000,0003.36,0001.51,0000.82,0000.39,0000.14,-000.18,0001.11,0000.68,0000.91,16.9,23.6,01.5,01.0,0668.3,31.0
2021-04-12T08:56:00Z,00000200,01000000,0002.71,0001.61,0001.05,0000.48,-000.01,0000.11,0000.33,0000.86,0000.41,17.0,23.6,01.5,01.0,0668.2,31.0
2021-04-12T08:57:00Z,00000200,41000000,,,,,,,-000.88,-000.93,-000.64,17.0,23.6,01.7,01.1,0668.2,31.0
2021-04-12T08:58:00Z,00000200,61000000,,,,,,,0000.23,0000.82,0000.67,16.7,23.7,01.1,00.7,0667.3,31.0
2021-04-12T08:59:00Z,00000200,21000000,,,,,,,0000.44,0000.07,-000.03,16.7,23.8,01.2,00.8,0667.3,31.0
